Location: Newark
(3.0500°N, 36.0167°E)
Time: 00:36:59
(UTC+00:00)

Courier 1B - Visible Passes

Search period start: 22 August 2019 00:00
Search period end: 01 September 2019 00:00
Orbit: 962 x 1209 km, 28.3° (Epoch: 21 August)

Date Brightness Start Highest point End Pass type
(mag) Time Alt. Az. Time Alt. Az. Time Alt. Az.
22 Aug 9.5 02:07:18 14° SSW 02:07:18 14° SSW 02:10:40 10° S visible
23 Aug 9.9 01:17:11 11° SSE 01:17:11 11° SSE 01:17:45 10° SSE visible
26 Aug 9.7 17:46:32 10° N 17:48:01 11° NNE 17:48:01 11° NNE visible
27 Aug 10.0 18:44:02 10° NNW 18:44:25 11° NNW 18:44:25 11° NNW visible
28 Aug 9.4 17:50:53 10° NNW 17:53:57 17° N 17:53:57 17° N visible
29 Aug 9.4 16:57:51 10° NNW 17:01:11 14° NNE 17:03:31 12° NE visible
29 Aug 10.0 18:49:45 10° NW 18:50:24 13° NW 18:50:24 13° NW visible
30 Aug 9.7 16:05:13 10° N 16:07:00 11° NNE 16:08:45 10° NNE visible
30 Aug 9.0 17:56:19 10° NW 18:00:01 26° N 18:00:01 26° N visible
31 Aug 8.8 17:02:56 10° NNW 17:08:10 24° NNE 17:09:40 22° NE visible
31 Aug 10.1 18:55:55 10° WNW 18:56:34 13° WNW 18:56:34 13° WNW visible
